| time (UTC) | temp F | wind direction | speed MPH | gust MPH | rain 1hr in | rain 24hr in | rain mn in | humidity % | barometer mb |
| 20260505172812 | 80 | 243 | 4.0 | 9.0 | 0.00 | 0.00 | 0.00 | 38 | 1016.8 |
| 20260505172312 | 80 | 267 | 4.0 | 16.0 | 0.00 | 0.00 | 0.00 | 38 | 1016.7 |
| 20260505171813 | 80 | 261 | 4.0 | 16.0 | 0.00 | 0.00 | 0.00 | 36 | 1016.8 |
| 20260505171313 | 80 | 291 | 4.0 | 10.0 | 0.00 | 0.00 | 0.00 | 37 | 1016.8 |
| 20260505170813 | 80 | 322 | 4.0 | 11.0 | 0.00 | 0.00 | 0.00 | 38 | 1016.9 |
| 20260505170312 | 79 | 97 | 4.0 | 13.0 | 0.00 | 0.00 | 0.00 | 34 | 1017.0 |
| 20260505165814 | 79 | 298 | 4.0 | 13.0 | 0.00 | 0.00 | 0.00 | 38 | 1016.9 |
| 20260505165309 | 79 | 153 | 4.0 | 11.0 | 0.00 | 0.00 | 0.00 | 37 | 1016.9 |
| 20260505165035 | 79 | 334 | 5.0 | 13.0 | 0.00 | 0.00 | 0.00 | 36 | 1017.0 |
| 20260505164311 | 79 | 133 | 5.0 | 13.0 | 0.00 | 0.00 | 0.00 | 38 | 1017.1 |
| 20260505163812 | 79 | 253 | 4.0 | 11.0 | 0.00 | 0.00 | 0.00 | 36 | 1017.1 |
| 20260505163305 | 79 | 219 | 3.0 | 8.0 | 0.00 | 0.00 | 0.00 | 40 | 1017.1 |
| 20260505162806 | 79 | 107 | 3.0 | 9.0 | 0.00 | 0.00 | 0.00 | 40 | 1017.1 |
| 20260505162305 | 79 | 248 | 3.0 | 9.0 | 0.00 | 0.00 | 0.00 | 41 | 1017.4 |
| 20260505161800 | 78 | 194 | 3.0 | 7.0 | 0.00 | 0.00 | 0.00 | 43 | 1017.4 |
| 20260505161259 | 78 | 245 | 3.0 | 11.0 | 0.00 | 0.00 | 0.00 | 44 | 1017.4 |
| 20260505160801 | 78 | 57 | 3.0 | 11.0 | 0.00 | 0.00 | 0.00 | 46 | 1017.4 |
| 20260505160300 | 77 | 80 | 2.0 | 11.0 | 0.00 | 0.00 | 0.00 | 47 | 1017.4 |
| 20260505153019 | 75 | 224 | 3.0 | 6.0 | 0.00 | 0.00 | 0.00 | 54 | 1017.8 |
| 20260505152254 | 74 | 230 | 4.0 | 10.0 | 0.00 | 0.00 | 0.00 | 55 | 1017.9 |
| 20260505151755 | 74 | 270 | 4.0 | 10.0 | 0.00 | 0.00 | 0.00 | 55 | 1018.0 |
| 20260505151251 | 74 | 325 | 4.0 | 10.0 | 0.00 | 0.00 | 0.00 | 57 | 1017.9 |
| 20260505150754 | 73 | 267 | 5.0 | 12.0 | 0.00 | 0.00 | 0.00 | 56 | 1017.9 |
| 20260505150253 | 73 | 226 | 5.0 | 12.0 | 0.00 | 0.00 | 0.00 | 57 | 1017.9 |
| 20260505140210 | 70 | 249 | 5.0 | 12.0 | 0.00 | 0.00 | 0.00 | 61 | 1017.6 |
| 20260505130157 | 65 | 253 | 3.0 | 9.0 | 0.00 | 0.00 | 0.00 | 69 | 1017.6 |
| 20260505124640 | 62 | 288 | 2.0 | 7.0 | 0.00 | 0.00 | 0.00 | 77 | 1017.7 |
| 20260505124134 | 61 | 270 | 2.0 | 7.0 | 0.00 | 0.00 | 0.00 | 78 | 1017.6 |
| 20260505123846 | 60 | 224 | 1.0 | 5.0 | 0.00 | 0.00 | 0.00 | 80 | 1017.6 |
| 20260505123123 | 59 | 123 | 1.0 | 5.0 | 0.00 | 0.00 | 0.00 | 82 | 1017.6 |
| 20260505122616 | 58 | 196 | 1.0 | 4.0 | 0.00 | 0.00 | 0.00 | 83 | 1017.6 |
| 20260505122109 | 57 | 170 | 0.0 | 4.0 | 0.00 | 0.00 | 0.00 | 83 | 1017.6 |
| 20260505121603 | 56 | 146 | 1.0 | 3.0 | 0.00 | 0.00 | 0.00 | 84 | 1017.6 |
| 20260505121316 | 55 | 75 | 1.0 | 3.0 | 0.00 | 0.00 | 0.00 | 84 | 1017.6 |
| 20260505120552 | 54 | 58 | 1.0 | 3.0 | 0.00 | 0.00 | 0.00 | 85 | 1017.4 |
| 20260505120045 | 54 | 58 | 0.0 | 2.0 | 0.00 | 0.00 | 0.00 | 85 | 1017.2 |
| 20260505115539 | 53 | 130 | 0.0 | 2.0 | 0.00 | 0.00 | 0.00 | 85 | 1017.1 |
| 20260505115034 | 52 | 90 | 0.0 | 1.0 | 0.00 | 0.00 | 0.00 | 85 | 1017.0 |
| 20260505114529 | 51 | 90 | 0.0 | 0.0 | 0.00 | 0.00 | 0.00 | 84 | 1017.0 |
| 20260505114023 | 50 | 90 | 0.0 | 0.0 | 0.00 | 0.00 | 0.00 | 84 | 1017.0 |
| 20260505113516 | 50 | 90 | 0.0 | 0.0 | 0.00 | 0.00 | 0.00 | 84 | 1017.1 |
| 20260505113010 | 49 | 90 | 0.0 | 0.0 | 0.00 | 0.00 | 0.00 | 84 | 1017.1 |
| 20260505112503 | 49 | 5 | 0.0 | 0.0 | 0.00 | 0.00 | 0.00 | 84 | 1017.1 |
| 20260505111958 | 49 | 5 | 0.0 | 0.0 | 0.00 | 0.00 | 0.00 | 83 | 1017.0 |
| 20260505111451 | 49 | 5 | 0.0 | 0.0 | 0.00 | 0.00 | 0.00 | 83 | 1016.9 |
| 20260505110945 | 48 | 5 | 0.0 | 0.0 | 0.00 | 0.00 | 0.00 | 83 | 1016.9 |
| 20260505110439 | 48 | 5 | 0.0 | 0.0 | 0.00 | 0.00 | 0.00 | 83 | 1016.8 |
| 20260505102113 | 48 | 64 | 0.0 | 2.0 | 0.00 | 0.00 | 0.00 | 82 | 1016.4 |
| 20260505101823 | 48 | 64 | 1.0 | 3.0 | 0.00 | 0.00 | 0.00 | 82 | 1016.4 |
| 20260505101054 | 48 | 64 | 2.0 | 3.0 | 0.00 | 0.00 | 0.00 | 82 | 1016.3 |
| 20260505100327 | 48 | 64 | 1.0 | 2.0 | 0.00 | 0.00 | 0.00 | 82 | 1016.3 |
| 20260505095821 | 48 | 64 | 1.0 | 3.0 | 0.00 | 0.00 | 0.00 | 81 | 1016.4 |
| 20260505095314 | 48 | 64 | 0.0 | 3.0 | 0.00 | 0.00 | 0.00 | 81 | 1016.4 |
| 20260505094810 | 49 | 64 | 0.0 | 0.0 | 0.00 | 0.00 | 0.00 | 81 | 1016.4 |
| 20260505094529 | 49 | 64 | 0.0 | 0.0 | 0.00 | 0.00 | 0.00 | 81 | 1016.4 |
| 20260505093758 | 49 | 64 | 0.0 | 0.0 | 0.00 | 0.00 | 0.00 | 81 | 1016.4 |
| 20260505093251 | 49 | 64 | 0.0 | 0.0 | 0.00 | 0.00 | 0.00 | 81 | 1016.5 |
| 20260505093227 | 49 | 64 | 0.0 | 0.0 | 0.00 | 0.00 | 0.00 | 81 | 1016.4 |
| 20260505092238 | 49 | 64 | 0.0 | 0.0 | 0.00 | 0.00 | 0.00 | 81 | 1016.4 |
| 20260505091733 | 49 | 64 | 0.0 | 0.0 | 0.00 | 0.00 | 0.00 | 81 | 1016.4 |
| 20260505091453 | 49 | 64 | 0.0 | 0.0 | 0.00 | 0.00 | 0.00 | 81 | 1016.4 |
| 20260505090722 | 49 | 64 | 0.0 | 0.0 | 0.00 | 0.00 | 0.00 | 81 | 1016.4 |
| 20260505090215 | 50 | 64 | 0.0 | 0.0 | 0.00 | 0.00 | 0.00 | 81 | 1016.5 |
| 20260505085709 | 50 | 64 | 0.0 | 0.0 | 0.00 | 0.00 | 0.00 | 81 | 1016.4 |
| 20260505085203 | 50 | 64 | 0.0 | 0.0 | 0.00 | 0.00 | 0.00 | 81 | 1016.4 |
| 20260505084658 | 50 | 64 | 0.0 | 0.0 | 0.00 | 0.00 | 0.00 | 80 | 1016.4 |
| 20260505084422 | 50 | 64 | 0.0 | 0.0 | 0.00 | 0.00 | 0.00 | 80 | 1016.2 |
| 20260505083658 | 50 | 64 | 0.0 | 0.0 | 0.00 | 0.00 | 0.00 | 80 | 1016.2 |
| 20260505083420 | 50 | 64 | 0.0 | 0.0 | 0.00 | 0.00 | 0.00 | 80 | 1016.2 |
| 20260505082657 | 50 | 64 | 0.0 | 0.0 | 0.00 | 0.00 | 0.00 | 80 | 1016.2 |
| 20260505082156 | 50 | 64 | 0.0 | 0.0 | 0.00 | 0.00 | 0.00 | 80 | 1016.2 |
| 20260505081656 | 50 | 64 | 0.0 | 0.0 | 0.00 | 0.00 | 0.00 | 80 | 1016.2 |
| 20260505081152 | 50 | 64 | 0.0 | 0.0 | 0.00 | 0.00 | 0.00 | 80 | 1016.2 |
| 20260505080651 | 51 | 64 | 0.0 | 0.0 | 0.00 | 0.00 | 0.00 | 80 | 1016.1 |
| 20260505080149 | 51 | 64 | 0.0 | 0.0 | 0.00 | 0.00 | 0.00 | 79 | 1016.1 |
| 20260505075648 | 51 | 64 | 0.0 | 0.0 | 0.00 | 0.00 | 0.00 | 80 | 1016.1 |
| 20260505075146 | 51 | 64 | 0.0 | 0.0 | 0.00 | 0.00 | 0.00 | 79 | 1016.0 |
| 20260505074647 | 51 | 64 | 0.0 | 0.0 | 0.00 | 0.00 | 0.00 | 79 | 1016.1 |
| 20260505074145 | 51 | 64 | 0.0 | 0.0 | 0.00 | 0.00 | 0.00 | 79 | 1016.1 |
| 20260505073913 | 51 | 64 | 0.0 | 0.0 | 0.00 | 0.00 | 0.00 | 79 | 1016.1 |
| 20260505073402 | 51 | 64 | 0.0 | 0.0 | 0.00 | 0.00 | 0.00 | 79 | 1016.0 |
| 20260505072643 | 51 | 64 | 0.0 | 0.0 | 0.00 | 0.00 | 0.00 | 79 | 1016.0 |
| 20260505072143 | 51 | 64 | 0.0 | 0.0 | 0.00 | 0.00 | 0.00 | 79 | 1016.0 |
| 20260505071644 | 51 | 64 | 0.0 | 0.0 | 0.00 | 0.00 | 0.00 | 78 | 1016.1 |
| 20260505071142 | 51 | 64 | 0.0 | 0.0 | 0.00 | 0.00 | 0.00 | 78 | 1015.9 |
| 20260505070635 | 52 | 64 | 0.0 | 0.0 | 0.00 | 0.00 | 0.00 | 78 | 1016.0 |
| 20260505070129 | 52 | 64 | 0.0 | 0.0 | 0.00 | 0.00 | 0.00 | 77 | 1016.0 |
| 20260505065623 | 52 | 64 | 0.0 | 0.0 | 0.00 | 0.00 | 0.00 | 77 | 1016.0 |
| 20260505065117 | 53 | 64 | 0.0 | 0.0 | 0.00 | 0.00 | 0.00 | 76 | 1016.0 |
| 20260505064611 | 53 | 64 | 0.0 | 0.0 | 0.00 | 0.00 | 0.00 | 76 | 1016.1 |
| 20260505064323 | 53 | 64 | 0.0 | 0.0 | 0.00 | 0.00 | 0.00 | 76 | 1016.1 |
| 20260505063559 | 54 | 64 | 0.0 | 0.0 | 0.00 | 0.00 | 0.00 | 75 | 1016.1 |
| 20260505063053 | 54 | 64 | 0.0 | 0.0 | 0.00 | 0.00 | 0.00 | 75 | 1016.1 |
| 20260505062547 | 54 | 64 | 0.0 | 0.0 | 0.00 | 0.00 | 0.00 | 74 | 1016.2 |
| 20260505062041 | 55 | 64 | 0.0 | 0.0 | 0.00 | 0.00 | 0.00 | 74 | 1016.2 |
| 20260505061536 | 55 | 64 | 0.0 | 0.0 | 0.00 | 0.00 | 0.00 | 73 | 1016.2 |
| 20260505061031 | 56 | 64 | 0.0 | 0.0 | 0.00 | 0.00 | 0.00 | 72 | 1016.3 |
| 20260505060523 | 56 | 64 | 0.0 | 0.0 | 0.00 | 0.00 | 0.00 | 72 | 1016.3 |
| 20260505060017 | 57 | 64 | 0.0 | 0.0 | 0.00 | 0.00 | 0.00 | 71 | 1016.3 |
| 20260505055511 | 57 | 64 | 0.0 | 1.0 | 0.00 | 0.00 | 0.00 | 71 | 1016.3 |
| 20260505055005 | 57 | 64 | 0.0 | 1.0 | 0.00 | 0.00 | 0.00 | 70 | 1016.3 |
| 20260505054720 | 57 | 64 | 0.0 | 2.0 | 0.00 | 0.00 | 0.00 | 70 | 1016.3 |
| 20260505054218 | 58 | 64 | 0.0 | 2.0 | 0.00 | 0.00 | 0.00 | 70 | 1016.4 |
| 20260505053448 | 58 | 64 | 1.0 | 2.0 | 0.00 | 0.00 | 0.00 | 69 | 1016.5 |
| 20260505052941 | 58 | 64 | 1.0 | 2.0 | 0.00 | 0.00 | 0.00 | 69 | 1016.5 |
| 20260505052435 | 58 | 64 | 1.0 | 2.0 | 0.00 | 0.00 | 0.00 | 68 | 1016.5 |
| 20260505051930 | 59 | 64 | 1.0 | 2.0 | 0.00 | 0.00 | 0.00 | 68 | 1016.5 |
| 20260505051424 | 59 | 64 | 0.0 | 2.0 | 0.00 | 0.00 | 0.00 | 67 | 1016.6 |
| 20260505050923 | 59 | 105 | 0.0 | 2.0 | 0.00 | 0.00 | 0.00 | 67 | 1016.6 |
| 20260505050422 | 59 | 129 | 1.0 | 2.0 | 0.00 | 0.00 | 0.00 | 67 | 1016.6 |
| 20260505041630 | 57 | 333 | 0.0 | 2.0 | 0.00 | 0.00 | 0.00 | 70 | 1016.8 |
| 20260505041137 | 57 | 240 | 0.0 | 2.0 | 0.00 | 0.00 | 0.00 | 70 | 1016.7 |
| 20260505040631 | 57 | 86 | 0.0 | 1.0 | 0.00 | 0.00 | 0.00 | 70 | 1016.7 |
| 20260505035912 | 57 | 86 | 0.0 | 0.0 | 0.00 | 0.00 | 0.00 | 70 | 1016.6 |
| 20260505035409 | 57 | 86 | 0.0 | 0.0 | 0.00 | 0.00 | 0.00 | 70 | 1016.6 |
| 20260505035143 | 58 | 86 | 0.0 | 0.0 | 0.00 | 0.00 | 0.00 | 69 | 1016.6 |
| 20260505034411 | 58 | 86 | 0.0 | 0.0 | 0.00 | 0.00 | 0.00 | 69 | 1016.6 |
| 20260505033909 | 58 | 86 | 0.0 | 0.0 | 0.00 | 0.00 | 0.00 | 69 | 1016.6 |
| 20260505033410 | 58 | 86 | 0.0 | 0.0 | 0.00 | 0.00 | 0.00 | 68 | 1016.6 |
| 20260505032908 | 58 | 86 | 0.0 | 0.0 | 0.00 | 0.00 | 0.00 | 69 | 1016.6 |
| 20260505032409 | 58 | 86 | 0.0 | 2.0 | 0.00 | 0.00 | 0.00 | 68 | 1016.7 |
| 20260505031908 | 58 | 86 | 1.0 | 2.0 | 0.00 | 0.00 | 0.00 | 68 | 1016.6 |
| 20260505031406 | 58 | 86 | 1.0 | 2.0 | 0.00 | 0.00 | 0.00 | 68 | 1016.7 |
| 20260505030907 | 58 | 76 | 0.0 | 2.0 | 0.00 | 0.00 | 0.00 | 67 | 1016.7 |
| 20260505030407 | 58 | 76 | 0.0 | 1.0 | 0.00 | 0.00 | 0.00 | 67 | 1016.8 |
| 20260505025908 | 58 | 76 | 0.0 | 0.0 | 0.00 | 0.00 | 0.00 | 67 | 1016.8 |
| 20260505025406 | 58 | 76 | 0.0 | 1.0 | 0.00 | 0.00 | 0.00 | 66 | 1016.7 |
| 20260505024907 | 58 | 76 | 0.0 | 1.0 | 0.00 | 0.00 | 0.00 | 66 | 1016.7 |
| 20260505024407 | 58 | 76 | 0.0 | 1.0 | 0.00 | 0.00 | 0.00 | 65 | 1016.6 |
| 20260505024130 | 59 | 76 | 1.0 | 2.0 | 0.00 | 0.00 | 0.00 | 65 | 1016.6 |
| 20260505023405 | 59 | 76 | 1.0 | 2.0 | 0.00 | 0.00 | 0.00 | 64 | 1016.6 |
| 20260505022905 | 59 | 76 | 1.0 | 2.0 | 0.00 | 0.00 | 0.00 | 64 | 1016.5 |
| 20260505022405 | 59 | 76 | 1.0 | 2.0 | 0.00 | 0.00 | 0.00 | 64 | 1016.5 |
| 20260505021905 | 60 | 116 | 0.0 | 2.0 | 0.00 | 0.00 | 0.00 | 63 | 1016.5 |
| 20260505021401 | 60 | 140 | 0.0 | 2.0 | 0.00 | 0.00 | 0.00 | 63 | 1016.5 |
| 20260505020901 | 60 | 150 | 1.0 | 4.0 | 0.00 | 0.00 | 0.00 | 63 | 1016.4 |
| 20260505020401 | 61 | 150 | 1.0 | 4.0 | 0.00 | 0.00 | 0.00 | 62 | 1016.3 |
| 20260505015900 | 61 | 270 | 0.0 | 3.0 | 0.00 | 0.00 | 0.00 | 62 | 1016.3 |
| 20260505015359 | 61 | 44 | 0.0 | 1.0 | 0.00 | 0.00 | 0.00 | 62 | 1016.0 |
| 20260505014856 | 62 | 44 | 0.0 | 0.0 | 0.00 | 0.00 | 0.00 | 61 | 1016.0 |
| 20260505014355 | 62 | 44 | 0.0 | 0.0 | 0.00 | 0.00 | 0.00 | 59 | 1015.9 |
| 20260505014113 | 63 | 44 | 0.0 | 0.0 | 0.00 | 0.00 | 0.00 | 58 | 1015.8 |
| 20260505013354 | 63 | 44 | 0.0 | 0.0 | 0.00 | 0.00 | 0.00 | 57 | 1015.7 |
| 20260505012849 | 63 | 44 | 0.0 | 0.0 | 0.00 | 0.00 | 0.00 | 55 | 1015.7 |
| 20260505012343 | 64 | 44 | 0.0 | 0.0 | 0.00 | 0.00 | 0.00 | 55 | 1015.7 |
| 20260505012055 | 64 | 44 | 0.0 | 0.0 | 0.00 | 0.00 | 0.00 | 57 | 1015.6 |
| 20260505011548 | 65 | 44 | 0.0 | 0.0 | 0.00 | 0.00 | 0.00 | 56 | 1015.6 |
| 20260505011319 | 65 | 44 | 0.0 | 0.0 | 0.00 | 0.00 | 0.00 | 55 | 1015.5 |
| 20260505010321 | 65 | 44 | 0.0 | 0.0 | 0.00 | 0.00 | 0.00 | 54 | 1015.5 |
| 20260505005813 | 66 | 44 | 0.0 | 0.0 | 0.00 | 0.00 | 0.00 | 53 | 1015.5 |
| 20260505005307 | 66 | 44 | 0.0 | 0.0 | 0.00 | 0.00 | 0.00 | 52 | 1015.5 |
| 20260505004801 | 67 | 44 | 0.0 | 0.0 | 0.00 | 0.00 | 0.00 | 51 | 1015.5 |
| 20260505004255 | 67 | 44 | 0.0 | 0.0 | 0.00 | 0.00 | 0.00 | 49 | 1015.3 |
| 20260505003749 | 68 | 44 | 0.0 | 0.0 | 0.00 | 0.00 | 0.00 | 49 | 1015.3 |
| 20260505003244 | 68 | 44 | 0.0 | 1.0 | 0.00 | 0.00 | 0.00 | 47 | 1015.3 |
| 20260505002738 | 69 | 44 | 0.0 | 1.0 | 0.00 | 0.00 | 0.00 | 46 | 1015.2 |
| 20260505002453 | 70 | 44 | 0.0 | 1.0 | 0.00 | 0.00 | 0.00 | 45 | 1015.1 |
| 20260505001725 | 71 | 44 | 0.0 | 0.0 | 0.00 | 0.00 | 0.00 | 43 | 1015.2 |
| 20260505001220 | 71 | 43 | 0.0 | 1.0 | 0.00 | 0.00 | 0.00 | 41 | 1015.1 |
| 20260505000713 | 72 | 42 | 0.0 | 1.0 | 0.00 | 0.00 | 0.00 | 39 | 1015.1 |
| 20260505000431 | 73 | 102 | 0.0 | 1.0 | 0.00 | 0.00 | 0.00 | 39 | 1015.1 |
| 20260504235701 | 73 | 102 | 0.0 | 1.0 | 0.00 | 0.00 | 0.00 | 37 | 1015.0 |
| 20260504235423 | 74 | 176 | 0.0 | 1.0 | 0.00 | 0.00 | 0.00 | 35 | 1015.0 |
| 20260504234649 | 74 | 176 | 0.0 | 1.0 | 0.00 | 0.00 | 0.00 | 34 | 1015.0 |
| 20260504234143 | 75 | 176 | 0.0 | 1.0 | 0.00 | 0.00 | 0.00 | 34 | 1014.9 |
| 20260504233637 | 75 | 176 | 0.0 | 2.0 | 0.00 | 0.00 | 0.00 | 34 | 1015.0 |
| 20260504233132 | 75 | 21 | 1.0 | 3.0 | 0.00 | 0.00 | 0.00 | 32 | 1015.0 |
| 20260504232626 | 75 | 192 | 1.0 | 3.0 | 0.00 | 0.00 | 0.00 | 29 | 1014.9 |
| 20260504232119 | 76 | 255 | 2.0 | 4.0 | 0.00 | 0.00 | 0.00 | 29 | 1014.9 |
| 20260504231614 | 76 | 198 | 2.0 | 4.0 | 0.00 | 0.00 | 0.00 | 29 | 1014.9 |
| 20260504231107 | 76 | 220 | 2.0 | 7.0 | 0.00 | 0.00 | 0.00 | 28 | 1015.0 |
| 20260504230825 | 76 | 263 | 2.0 | 7.0 | 0.00 | 0.00 | 0.00 | 29 | 1015.0 |
| 20260504230554 | 77 | 72 | 2.0 | 4.0 | 0.00 | 0.00 | 0.00 | 29 | 1015.0 |
| 20260504225550 | 77 | 211 | 2.0 | 11.0 | 0.00 | 0.00 | 0.00 | 29 | 1015.0 |
| 20260504225044 | 77 | 218 | 2.0 | 11.0 | 0.00 | 0.00 | 0.00 | 28 | 1015.0 |
| 20260504224538 | 77 | 234 | 2.0 | 10.0 | 0.00 | 0.00 | 0.00 | 29 | 1015.0 |
| 20260504224032 | 77 | 217 | 3.0 | 10.0 | 0.00 | 0.00 | 0.00 | 28 | 1015.0 |
| 20260504223747 | 77 | 171 | 3.0 | 8.0 | 0.00 | 0.00 | 0.00 | 28 | 1015.0 |
| 20260504223020 | 78 | 213 | 2.0 | 8.0 | 0.00 | 0.00 | 0.00 | 28 | 1015.1 |
| 20260504222513 | 78 | 184 | 2.0 | 7.0 | 0.00 | 0.00 | 0.00 | 28 | 1015.1 |
| 20260504222007 | 78 | 78 | 3.0 | 10.0 | 0.00 | 0.00 | 0.00 | 29 | 1015.0 |
| 20260504221508 | 78 | 262 | 3.0 | 10.0 | 0.00 | 0.00 | 0.00 | 27 | 1015.0 |
| 20260504221227 | 78 | 155 | 3.0 | 8.0 | 0.00 | 0.00 | 0.00 | 27 | 1015.0 |
| 20260504220506 | 78 | 171 | 2.0 | 9.0 | 0.00 | 0.00 | 0.00 | 27 | 1015.0 |
| 20260504220004 | 79 | 195 | 2.0 | 9.0 | 0.00 | 0.00 | 0.00 | 27 | 1015.0 |
| 20260504215505 | 79 | 134 | 2.0 | 8.0 | 0.00 | 0.00 | 0.00 | 25 | 1015.0 |
| 20260504215004 | 80 | 133 | 3.0 | 10.0 | 0.00 | 0.00 | 0.00 | 26 | 1014.9 |
| 20260504214505 | 80 | 170 | 3.0 | 10.0 | 0.00 | 0.00 | 0.00 | 25 | 1014.9 |
| 20260504214004 | 80 | 195 | 4.0 | 11.0 | 0.00 | 0.00 | 0.00 | 27 | 1014.9 |
| 20260504213728 | 80 | 125 | 5.0 | 11.0 | 0.00 | 0.00 | 0.00 | 25 | 1014.9 |
| 20260504213231 | 80 | 217 | 4.0 | 10.0 | 0.00 | 0.00 | 0.00 | 25 | 1014.9 |
| 20260504212728 | 80 | 211 | 3.0 | 8.0 | 0.00 | 0.00 | 0.00 | 25 | 1014.8 |
| 20260504212230 | 81 | 87 | 3.0 | 11.0 | 0.00 | 0.00 | 0.00 | 25 | 1014.7 |
| 20260504211505 | 81 | 248 | 3.0 | 11.0 | 0.00 | 0.00 | 0.00 | 26 | 1014.8 |
| 20260504211232 | 81 | 170 | 3.0 | 8.0 | 0.00 | 0.00 | 0.00 | 25 | 1014.7 |
| 20260504210504 | 81 | 259 | 4.0 | 10.0 | 0.00 | 0.00 | 0.00 | 22 | 1014.8 |
| 20260504210441 | 81 | 234 | 3.0 | 10.0 | 0.00 | 0.00 | 0.00 | 23 | 1014.9 |
| 20260504205713 | 81 | 227 | 3.0 | 14.0 | 0.00 | 0.00 | 0.00 | 25 | 1014.9 |
| 20260504205200 | 81 | 215 | 3.0 | 14.0 | 0.00 | 0.00 | 0.00 | 24 | 1015.0 |
| 20260504204439 | 81 | 244 | 3.0 | 9.0 | 0.00 | 0.00 | 0.00 | 25 | 1015.0 |
| 20260504203933 | 80 | 165 | 4.0 | 8.0 | 0.00 | 0.00 | 0.00 | 23 | 1015.0 |
| 20260504203427 | 81 | 302 | 4.0 | 11.0 | 0.00 | 0.00 | 0.00 | 24 | 1015.0 |
| 20260504202921 | 81 | 241 | 3.0 | 11.0 | 0.00 | 0.00 | 0.00 | 24 | 1015.0 |
| 20260504202415 | 81 | 247 | 3.0 | 8.0 | 0.00 | 0.00 | 0.00 | 23 | 1015.0 |
| 20260504201909 | 81 | 300 | 4.0 | 10.0 | 0.00 | 0.00 | 0.00 | 24 | 1015.0 |
| 20260504201404 | 81 | 219 | 4.0 | 10.0 | 0.00 | 0.00 | 0.00 | 23 | 1015.0 |
| 20260504200857 | 81 | 271 | 4.0 | 10.0 | 0.00 | 0.00 | 0.00 | 22 | 1015.0 |
| 20260504200611 | 81 | 238 | 3.0 | 10.0 | 0.00 | 0.00 | 0.00 | 22 | 1015.2 |
| 20260504195845 | 81 | 351 | 4.0 | 8.0 | 0.00 | 0.00 | 0.00 | 23 | 1015.1 |
| 20260504195339 | 81 | 334 | 3.0 | 8.0 | 0.00 | 0.00 | 0.00 | 23 | 1015.3 |
| 20260504194834 | 81 | 286 | 2.0 | 6.0 | 0.00 | 0.00 | 0.00 | 21 | 1015.3 |
| 20260504194328 | 81 | 120 | 2.0 | 6.0 | 0.00 | 0.00 | 0.00 | 19 | 1015.5 |
| 20260504193822 | 81 | 243 | 4.0 | 10.0 | 0.00 | 0.00 | 0.00 | 21 | 1015.6 |
| 20260504193316 | 81 | 244 | 4.0 | 10.0 | 0.00 | 0.00 | 0.00 | 22 | 1015.6 |
| 20260504192809 | 81 | 263 | 3.0 | 9.0 | 0.00 | 0.00 | 0.00 | 22 | 1015.7 |
| 20260504192304 | 80 | 238 | 3.0 | 8.0 | 0.00 | 0.00 | 0.00 | 23 | 1015.7 |
| 20260504192025 | 80 | 142 | 3.0 | 8.0 | 0.00 | 0.00 | 0.00 | 23 | 1015.8 |
| 20260504191251 | 80 | 238 | 2.0 | 5.0 | 0.00 | 0.00 | 0.00 | 24 | 1015.8 |
| 20260504190746 | 79 | 251 | 3.0 | 11.0 | 0.00 | 0.00 | 0.00 | 24 | 1015.8 |
| 20260504190239 | 79 | 237 | 4.0 | 11.0 | 0.00 | 0.00 | 0.00 | 23 | 1015.9 |
| 20260504185733 | 79 | 256 | 3.0 | 10.0 | 0.00 | 0.00 | 0.00 | 24 | 1016.1 |
| 20260504185227 | 79 | 241 | 3.0 | 8.0 | 0.00 | 0.00 | 0.00 | 23 | 1016.2 |
| 20260504184721 | 78 | 261 | 3.0 | 8.0 | 0.00 | 0.00 | 0.00 | 23 | 1016.2 |
| 20260504184216 | 78 | 71 | 3.0 | 9.0 | 0.00 | 0.00 | 0.00 | 23 | 1016.2 |
| 20260504183710 | 79 | 233 | 4.0 | 11.0 | 0.00 | 0.00 | 0.00 | 22 | 1016.4 |
| 20260504183203 | 79 | 306 | 4.0 | 11.0 | 0.00 | 0.00 | 0.00 | 22 | 1016.4 |
| 20260504182657 | 79 | 269 | 3.0 | 9.0 | 0.00 | 0.00 | 0.00 | 22 | 1016.5 |
| 20260504182151 | 78 | 271 | 3.0 | 7.0 | 0.00 | 0.00 | 0.00 | 22 | 1016.5 |
| 20260504181645 | 78 | 74 | 3.0 | 11.0 | 0.00 | 0.00 | 0.00 | 24 | 1016.5 |
| 20260504181140 | 78 | 163 | 4.0 | 11.0 | 0.00 | 0.00 | 0.00 | 23 | 1016.6 |
| 20260504180633 | 78 | 222 | 4.0 | 10.0 | 0.00 | 0.00 | 0.00 | 24 | 1016.7 |
| 20260504180128 | 77 | 313 | 5.0 | 10.0 | 0.00 | 0.00 | 0.00 | 25 | 1016.7 |
| 20260504175622 | 77 | 236 | 6.0 | 11.0 | 0.00 | 0.00 | 0.00 | 23 | 1016.8 |
| 20260504175115 | 77 | 260 | 5.0 | 11.0 | 0.00 | 0.00 | 0.00 | 24 | 1016.8 |
| 20260504174609 | 77 | 261 | 3.0 | 12.0 | 0.00 | 0.00 | 0.00 | 25 | 1016.8 |
| 20260504174103 | 77 | 267 | 3.0 | 12.0 | 0.00 | 0.00 | 0.00 | 28 | 1017.0 |
| 20260504173823 | 76 | 159 | 4.0 | 10.0 | 0.00 | 0.00 | 0.00 | 28 | 1017.0 |